Flag for U.S.A. Weather past 2 weeks in Marengo, Indiana, U.S.A.

Now
34 °F

Light rain. Overcast.


Feels Like: 34 °F
Forecast: 27 / 34 °F
Wind: No wind

Location: Bowling Green-Warren County Regional Airport

Current Time: Dec 18, 2014 at 11:48:40 AM

Latest Report: Dec 18, 2014 at 10:53 AM


Visibility: 6 mi

Pressure: 30.30 "Hg

Humidity: 76%

Dew point: 27 °F

Location of MarengoLocation

Historic Weather in Marengo — Graph

°F

Marengo temperature yesterday

Maximum temperature yesterday: 41 °F (at 1:53 PM)
Minimum temperature yesterday: 30 °F (at 10:53 PM)
Average temperature yesterday: 36 °F

Past Weeks' High & Low Weather Summary

 TemperatureHumidityPressure
High64 °F (Dec 5, 4:53 PM)93% (Dec 5, 4:53 AM)30.54 "Hg (Dec 5, 4:53 AM)
Low22 °F (Dec 12, 7:53 AM)44% (Dec 12, 3:53 PM)29.78 "Hg (Dec 16, 12:53 AM)
Average43 °F74%30.24 "Hg
* Reported Dec 3 9:53 AM — Dec 18 9:53 AM, Marengo, Weather by CustomWeather, © 2014

Note: Actual official high and low records may vary slightly from our data, if they occured in-between our weather recording intervals... More about our weather records

Advertising

Marengo weather history for previous 24 hours

 ConditionsComfort  
Time TempWeatherWind HumidityBarometerVisibility
9:53 AM
Dec 18
33 °FMostly cloudy.No wind75%30.30 "Hg6 mi
8:53 AM32 °FOvercast.3 mph79%30.29 "Hg6 mi
7:53 AM31 °FPartly sunny.No wind82%30.28 "Hg8 mi
6:53 AM31 °FOvercast.6 mph82%30.27 "Hg7 mi
5:53 AM31 °FMostly cloudy.3 mph79%30.29 "Hg8 mi
4:53 AM31 °FLight snow. Mostly cloudy.6 mph79%30.26 "Hg6 mi
3:53 AM31 °FLight snow. Overcast.5 mph79%30.30 "Hg7 mi
2:53 AM31 °FOvercast.No wind76%30.32 "Hg10 mi
1:53 AM31 °FClear.No wind76%30.29 "Hg10 mi
12:53 AM30 °FClear.No wind79%30.30 "Hg10 mi
11:53 PM
Dec 17
30 °FClear.No wind79%30.30 "Hg10 mi
10:53 PM30 °FClear.No wind75%30.29 "Hg10 mi
9:53 PM31 °FClear.3 mph76%30.29 "Hg10 mi
8:53 PM33 °FClear.5 mph72%30.30 "Hg10 mi
7:53 PM35 °FClear.5 mph67%30.29 "Hg10 mi
6:53 PM36 °FClear.5 mph64%30.29 "Hg10 mi
5:53 PM39 °FClear.3 mph57%30.27 "Hg10 mi
4:53 PM39 °FSunny.5 mph57%30.27 "Hg10 mi
3:53 PM40 °FSunny.5 mph58%30.26 "Hg10 mi
2:53 PM41 °FSunny.7 mph58%30.26 "Hg10 mi
1:53 PM41 °FPassing clouds.No wind58%30.27 "Hg10 mi
12:53 PM39 °FPassing clouds.5 mph60%30.28 "Hg10 mi
11:53 AM37 °FOvercast.6 mph65%30.32 "Hg10 mi
Weather by CustomWeather, © 2014

See weather overviewHow to use our weather pages